sat.trackr.live / text

‹ back to catalog

STARLINK-5700

NORAD 55607 · 2023-020AQ

PAYLOAD ACTIVE UNKNOWN

§ Identity

Operator
Country
US
Launch date
2023-02-12
Launch site
AFETR
Launch vehicle
Mass (kg)
RCS (m²)

Purposes: comms

External: N2YO · Heavens-Above · Gunter

§ Orbital elements

Epoch: 2026-05-25T02:21:35.318880Z

Period
94.27 min
Inclination
43.0027°
Eccentricity
0.0002020
Mean motion
15.27583561 rev/d
Perigee alt
481.7 km
Apogee alt
484.4 km
Semi-major
6,861.2 km
B*
-1.9538e-5
RAAN
282.8366°
Arg perigee
279.7959°
Mean anomaly
80.2664°
Rev number
18,072

§ Raw data

STARLINK-57001 55607U 23020AQ  26145.09832545 -.00000800  00000+0 -19538-4 0  99932 55607  43.0027 282.8366 0002020 279.7959  80.2664 15.27583561180725

JSON: /api/v1/satellites/55607 · /tle

For live sub-satellite position, see the globe view (requires WebGL).

§ Visibility from observer

Set your observer location to see the next 7 days of passes ≥ 10°. The values pass through the URL so the page stays shareable.

No JS? Fill the form by hand. The geolocation button needs JavaScript.